Content
SEND FEEDBACK

Daily
Averages
Monthly
Summary
United States of America

VERNON, VERMONT


Home > North America > United States > Vermont
Elevation: 73 meters     Latitude: 42 46N     Longitude: 072 31W

WEATHER
 
SELECT A DAY
Number of Records: 452,701;   Date Range: 1/1/95 - 10/19/14
 
SHARE

PRINT THIS DATA

[ ← Previous Day ]
WEATHER ALMANAC - 8 JANUARY, 2014
[ Next Day → ]
[ °F ]   °C
Weather ElementAverageHighLow
Temperature-11.7 °C-7 °C (1:35 pm)-16 °C (7:35 am)
Dewpoint-19.6 °C-16 °C (9:55 pm)-24 °C (12:35 am)
Humidity53.5 %73 % (8:15 pm)42 % (12:35 pm)
Barometer1027.4 hPa1030.1 hPa (7:35 pm)1021.7 hPa (12:35 am)
Wind Speed8.9 km/h20.4 km/h (2:15 pm)
Wind Gust27.8 km/h (2:35 pm)
Weather ElementAverage
Visibility16.1 km
Wind DirectionSSE (160 °)

Weather ElementTotal
Precipitation---
Heating Degree Days29.8 (Base 18.3)
Averaged from 71 records on 8 January, 2014
WEATHER CONDITIONS BREAKOUT
WIND DIRECTION BREAKOUT
WEATHER BY HOUR - 8 JANUARY, 2014
[ °F ]   °C
Local TimeTemperatureDewpointHumidityBarometerVisibilityWind DirectionWind SpeedGust SpeedPrecipitationEventsConditions
12:35 AM-14 °C-24 °C44 %1021.7 hPa16.1 kmSW (230°)14.8 km/hClear
12:55 AM-14 °C-23 °C48 %1022.4 hPa16.1 kmSSW (210°)13 km/hClear
1:15 AM-14 °C-23 °C48 %1022.4 hPa16.1 kmSouth (180°)9.3 km/hClear
1:35 AM-14 °C-24 °C44 %1022.7 hPa16.1 kmSouth (170°)9.3 km/hClear
1:55 AM-15 °C-24 °C47 %1023 hPa16.1 kmSSW (200°)9.3 km/hClear
2:15 AM-15 °C-23 °C52 %1023.4 hPa16.1 kmSSW (210°)13 km/hClear
2:35 AM-15 °C-23 °C52 %1023.7 hPa16.1 kmSSW (210°)9.3 km/hClear
2:55 AM-14 °C-23 °C48 %1023.7 hPa16.1 kmSW (220°)13 km/hClear
3:15 AM-14 °C-23 °C48 %1024 hPa16.1 kmSSW (210°)14.8 km/h25.9 km/hClear
3:35 AM-14 °C-23 °C48 %1024.4 hPa16.1 kmSW (220°)16.7 km/hClear
3:55 AM-14 °C-23 °C48 %1024.7 hPa16.1 kmSW (220°)14.8 km/hClear
4:15 AM-14 °C-23 °C48 %1024.7 hPa16.1 kmSW (220°)11.1 km/hClear
4:35 AM-14 °C-22 °C52 %1025.1 hPa16.1 kmSouth (180°)7.4 km/hClear
4:55 AM-15 °C-22 °C56 %1025.1 hPa16.1 kmSouth (180°)7.4 km/hClear
5:15 AM-15 °C-22 °C56 %1025.4 hPa16.1 kmSouth (190°)9.3 km/hClear
5:35 AM-14 °C-22 °C52 %1025.4 hPa16.1 kmSouth (180°)13 km/hClear
5:55 AM-15 °C-23 °C52 %1025.7 hPa16.1 kmSW (220°)14.8 km/hClear
6:15 AM-15 °C-22 °C56 %1026.1 hPa16.1 kmSSW (210°)9.3 km/hClear
6:35 AM-15 °C-22 °C56 %1026.4 hPa16.1 kmCalmClear
6:55 AM-15 °C-22 °C56 %1026.8 hPa16.1 kmSouth (170°)11.1 km/hClear
7:15 AM-15 °C-22 °C56 %1027.1 hPa16.1 kmSouth (190°)9.3 km/hClear
7:35 AM-16 °C-22 °C61 %1027.4 hPa16.1 kmSSW (200°)11.1 km/hClear
7:55 AM-16 °C-22 °C61 %1027.8 hPa16.1 kmSSW (210°)7.4 km/hClear
8:15 AM-15 °C-21 °C61 %1028.4 hPa16.1 kmSSW (210°)7.4 km/hClear
8:35 AM-14 °C-21 °C56 %1028.8 hPa16.1 kmSW (220°)13 km/hClear
8:55 AM-13 °C-21 °C52 %1028.8 hPa16.1 kmSW (220°)16.7 km/hClear
9:15 AM-13 °C-21 °C52 %1028.8 hPa16.1 kmSW (230°)11.1 km/hClear
9:35 AM-13 °C-21 °C52 %1028.8 hPa16.1 kmWSW (240°)7.4 km/hClear
9:55 AM-12 °C-21 °C48 %1028.8 hPa16.1 kmCalmClear
10:15 AM-12 °C-21 °C48 %1029.5 hPa16.1 kmSW (230°)7.4 km/hClear
10:35 AM-11 °C-20 °C48 %1029.1 hPa16.1 kmCalmClear
10:55 AM-10 °C-20 °C45 %1028.8 hPa16.1 kmWNW (290°)5.6 km/hClear
11:15 AM-10 °C-20 °C45 %1028.4 hPa16.1 kmCalmClear
11:35 AM-9 °C-19 °C45 %1028.1 hPa16.1 kmSW (220°)16.7 km/hClear
11:55 AM-9 °C-19 °C45 %1027.8 hPa16.1 kmSW (230°)11.1 km/hClear
12:15 PM-9 °C-19 °C45 %1027.4 hPa16.1 kmWSW (240°)9.3 km/hClear
12:35 PM-8 °C-19 °C42 %1027.4 hPa16.1 kmSSW (210°)13 km/hClear
12:55 PM-8 °C-18 °C45 %1027.4 hPa16.1 kmSSW (210°)16.7 km/hClear
1:15 PM-8 °C-19 °C42 %1027.4 hPa16.1 kmSSW (210°)16.7 km/hClear
1:35 PM-7 °C-18 °C42 %1027.1 hPa16.1 kmSSW (210°)13 km/hClear
1:55 PM-7 °C-18 °C42 %1027.1 hPa16.1 kmSSW (210°)16.7 km/hClear
2:15 PM-7 °C-18 °C42 %1027.4 hPa16.1 kmSSW (200°)20.4 km/hClear
2:35 PM-7 °C-18 °C42 %1027.4 hPa16.1 kmSSW (210°)20.4 km/h27.8 km/hClear
2:55 PM-7 °C-17 °C46 %1027.4 hPa16.1 kmSSW (210°)16.7 km/hClear
3:15 PM-7 °C-18 °C42 %1027.8 hPa16.1 kmSSW (200°)16.7 km/hClear
3:35 PM-7 °C-18 °C42 %1027.8 hPa16.1 kmSouth (190°)16.7 km/hClear
3:55 PM-7 °C-18 °C42 %1027.8 hPa16.1 kmSW (220°)14.8 km/h27.8 km/hClear
4:15 PM-8 °C-18 °C45 %1027.8 hPa16.1 kmSSW (200°)13 km/hClear
4:35 PM-8 °C-18 °C45 %1027.8 hPa16.1 kmSSW (210°)11.1 km/hClear
4:55 PM-8 °C-18 °C45 %1028.1 hPa16.1 kmSW (220°)11.1 km/hClear
5:15 PM-8 °C-18 °C45 %1028.4 hPa16.1 kmCalmClear
5:35 PM-10 °C-18 °C53 %1028.8 hPa16.1 kmCalmClear
5:55 PM-10 °C-17 °C57 %1028.8 hPa16.1 kmWSW (240°)5.6 km/hClear
6:15 PM-10 °C-17 °C57 %1029.5 hPa16.1 kmCalmClear
6:35 PM-11 °C-17 °C62 %1029.1 hPa16.1 kmCalmClear
6:55 PM-11 °C-17 °C62 %1029.5 hPa16.1 kmCalmClear
7:15 PM-11 °C-18 °C57 %1029.8 hPa16.1 kmCalmClear
7:35 PM-12 °C-18 °C62 %1030.1 hPa16.1 kmSSW (200°)5.6 km/hClear
7:55 PM-12 °C-18 °C62 %1030.1 hPa16.1 kmSW (220°)5.6 km/hClear
8:15 PM-13 °C-17 °C73 %1030.1 hPa16.1 kmSSW (210°)7.4 km/hClear
8:35 PM-13 °C-17 °C73 %1030.1 hPa16.1 kmSSW (210°)9.3 km/hClear
8:55 PM-13 °C-17 °C73 %1029.8 hPa16.1 kmCalmScattered Clouds
9:15 PM-13 °C-17 °C73 %1030.1 hPa16.1 kmCalmMostly Cloudy
9:35 PM-12 °C-17 °C67 %1030.1 hPa16.1 kmCalmMostly Cloudy
9:55 PM-12 °C-16 °C73 %1029.8 hPa16.1 kmCalmOvercast
10:15 PM-12 °C-16 °C73 %1030.1 hPa16.1 kmSSW (210°)5.6 km/hOvercast
10:35 PM-12 °C-16 °C73 %1030.1 hPa16.1 kmCalmOvercast
10:55 PM-11 °C-16 °C67 %1029.8 hPa16.1 kmCalmOvercast
11:15 PM-11 °C-16 °C67 %1029.8 hPa16.1 kmSSW (200°)5.6 km/hOvercast
11:35 PM-11 °C-16 °C67 %1029.5 hPa16.1 kmSSW (200°)7.4 km/hOvercast
11:55 PM-11 °C-16 °C67 %1029.1 hPa16.1 kmCalmOvercast
Hourly data recorded from KEEN, located 0 kilometers away from Vernon, Vermont







STORIES FROM OUR PARTNERS